Year,Month,Day,Hour,Minute,Value (Times are PST for temperature in C)
2016,07,27,07,04,12.00
2016,07,27,07,05,12.00
2016,07,27,07,06,12.00
2016,07,27,07,07,12.00
2016,07,27,07,08,12.10
2016,07,27,07,09,12.10
2016,07,27,07,10,12.10
2016,07,27,07,11,12.10
2016,07,27,07,12,12.10
2016,07,27,07,13,12.10
2016,07,27,07,14,12.10
2016,07,27,07,15,12.10
2016,07,27,07,16,12.10
2016,07,27,07,17,12.10
2016,07,27,07,18,12.10
2016,07,27,07,19,12.10
2016,07,27,07,20,12.10
2016,07,27,07,53,14.10
2016,07,27,07,54,14.10
2016,07,27,07,55,14.10
2016,07,27,07,56,14.10
2016,07,27,07,57,14.20
2016,07,27,07,58,14.20
2016,07,27,07,59,14.30
2016,07,27,08,00,14.30
2016,07,27,08,01,14.40
2016,07,27,08,02,14.50
2016,07,27,08,03,14.60
2016,07,27,08,04,14.70
2016,07,27,08,05,14.70
2016,07,27,08,06,14.80
2016,07,27,08,07,14.80
2016,07,27,08,08,14.90
2016,07,27,08,09,14.90
2016,07,27,08,10,15.00
2016,07,27,08,11,15.00
2016,07,27,08,12,15.00
2016,07,27,08,13,15.00
2016,07,27,08,14,15.00
2016,07,27,08,15,15.00
2016,07,27,08,16,15.10
2016,07,27,08,17,15.10
2016,07,27,08,18,15.10
2016,07,27,08,19,15.10
2016,07,27,08,20,15.10
2016,07,27,08,21,15.20
2016,07,27,08,22,15.20
2016,07,27,08,23,15.20
2016,07,27,08,24,15.20
2016,07,27,08,25,15.30
2016,07,27,08,26,15.30
2016,07,27,08,27,15.40
2016,07,27,08,28,15.40
2016,07,27,08,29,15.50
2016,07,27,08,30,15.50
2016,07,27,08,31,15.60
2016,07,27,08,32,15.60
2016,07,27,08,33,15.70
2016,07,27,08,34,15.80
2016,07,27,08,35,15.80
2016,07,27,08,36,15.90
2016,07,27,08,37,15.90
2016,07,27,08,38,15.90
2016,07,27,08,39,15.90
2016,07,27,08,40,16.00
2016,07,27,08,41,16.00
2016,07,27,08,42,16.10
2016,07,27,08,43,16.20
2016,07,27,08,44,16.20
2016,07,27,08,45,16.20
2016,07,27,08,46,16.20
2016,07,27,08,47,16.20
2016,07,27,08,48,16.20
2016,07,27,08,49,16.20
2016,07,27,08,50,16.20
2016,07,27,08,51,16.30
2016,07,27,08,52,16.30
2016,07,27,08,53,16.30
2016,07,27,08,54,16.40
2016,07,27,08,55,16.40
2016,07,27,08,56,16.50
2016,07,27,08,57,16.50
2016,07,27,08,58,16.60
2016,07,27,08,59,16.60
2016,07,27,09,00,16.70
2016,07,27,09,01,16.70
2016,07,27,09,02,16.80
2016,07,27,09,03,16.90
2016,07,27,09,04,16.90
2016,07,27,09,05,17.00
2016,07,27,09,06,17.00
2016,07,27,09,07,17.10
2016,07,27,09,08,17.10
2016,07,27,09,09,17.20
2016,07,27,09,10,17.20
2016,07,27,09,11,17.30
2016,07,27,09,12,17.40
2016,07,27,09,13,17.50
2016,07,27,09,14,17.60
2016,07,27,09,15,17.70
2016,07,27,09,16,17.80
2016,07,27,09,17,17.90
2016,07,27,09,18,18.00
2016,07,27,09,19,18.20
2016,07,27,09,20,18.30
2016,07,27,09,21,18.40
2016,07,27,09,22,18.50
2016,07,27,09,23,18.60
2016,07,27,09,24,18.70
2016,07,27,09,25,18.80
2016,07,27,09,26,18.80
2016,07,27,09,27,18.80
2016,07,27,09,28,18.90
2016,07,27,09,29,18.90
2016,07,27,09,30,18.90
2016,07,27,09,31,18.90
2016,07,27,09,32,18.90
2016,07,27,09,33,19.00
2016,07,27,09,34,19.00
2016,07,27,09,35,19.10
2016,07,27,09,36,19.10
2016,07,27,09,37,19.20
2016,07,27,09,38,19.20
2016,07,27,09,39,19.30
2016,07,27,09,40,19.30
2016,07,27,09,41,19.30
2016,07,27,09,42,19.30
2016,07,27,09,43,19.30
2016,07,27,09,44,19.30
2016,07,27,09,45,19.30
2016,07,27,09,46,19.30
2016,07,27,09,47,19.30
2016,07,27,09,48,19.40
2016,07,27,09,49,19.40
2016,07,27,09,50,19.40
2016,07,27,09,51,19.40
2016,07,27,09,52,19.40
2016,07,27,09,53,19.40
2016,07,27,09,54,19.40
2016,07,27,09,55,19.40
2016,07,27,09,56,19.40
2016,07,27,09,57,19.40
2016,07,27,09,58,19.40
2016,07,27,09,59,19.40
2016,07,27,10,00,19.40
2016,07,27,10,01,19.40
2016,07,27,10,02,19.30
2016,07,27,10,03,19.30
2016,07,27,10,04,19.20
2016,07,27,10,05,19.20
2016,07,27,10,06,19.20
2016,07,27,10,07,19.30
2016,07,27,10,08,19.30
2016,07,27,10,09,19.30
2016,07,27,10,10,19.30
2016,07,27,10,11,19.30
2016,07,27,10,12,19.30
2016,07,27,10,13,19.30
2016,07,27,10,14,19.40
2016,07,27,10,15,19.40
2016,07,27,10,16,19.40
2016,07,27,10,17,19.50
2016,07,27,10,18,19.50
2016,07,27,10,19,19.60
2016,07,27,10,20,19.60
2016,07,27,10,21,19.60
2016,07,27,10,22,19.60
2016,07,27,10,23,19.60
2016,07,27,10,24,19.60
2016,07,27,10,25,19.60
2016,07,27,10,26,19.70
2016,07,27,10,27,19.70
2016,07,27,10,28,19.70
2016,07,27,10,29,19.60
2016,07,27,10,30,19.60
2016,07,27,10,31,19.50
2016,07,27,10,32,19.50
2016,07,27,10,33,19.50
2016,07,27,10,34,19.40
2016,07,27,10,35,19.40
2016,07,27,10,36,19.50
2016,07,27,10,37,19.50
2016,07,27,10,38,19.50
2016,07,27,10,39,19.60
2016,07,27,10,40,19.60
2016,07,27,10,41,19.70
2016,07,27,10,42,19.80
2016,07,27,10,43,19.80
2016,07,27,10,44,19.90
2016,07,27,10,45,20.00
2016,07,27,10,46,20.00
2016,07,27,10,47,20.10
2016,07,27,10,48,20.10
2016,07,27,10,49,20.10
2016,07,27,10,50,20.10
2016,07,27,10,51,20.10
2016,07,27,10,52,20.20
2016,07,27,10,53,20.20
2016,07,27,10,54,20.30
2016,07,27,10,55,20.40
2016,07,27,10,56,20.50
2016,07,27,10,57,20.60
2016,07,27,10,58,20.60
2016,07,27,10,59,20.70
2016,07,27,11,00,20.80
2016,07,27,11,01,20.80
2016,07,27,11,02,20.90
2016,07,27,11,03,20.90
2016,07,27,11,04,20.80
2016,07,27,11,05,20.80
2016,07,27,11,06,20.80
2016,07,27,11,07,20.80
2016,07,27,11,08,20.80
2016,07,27,11,09,20.80
2016,07,27,11,10,20.80
2016,07,27,11,11,20.80
2016,07,27,11,12,20.80
2016,07,27,11,13,20.80
2016,07,27,11,14,20.80
2016,07,27,11,15,20.80
2016,07,27,11,16,20.80
2016,07,27,11,17,20.90
2016,07,27,11,18,20.90
2016,07,27,11,19,21.00
2016,07,27,11,20,21.10
2016,07,27,11,21,21.10
2016,07,27,11,22,21.20
2016,07,27,11,23,21.30
2016,07,27,11,24,21.30
2016,07,27,11,25,21.40
2016,07,27,11,26,21.40
2016,07,27,11,27,21.40
2016,07,27,11,28,21.40
2016,07,27,11,29,21.40
2016,07,27,11,30,21.40
2016,07,27,11,31,21.50
2016,07,27,11,32,21.50
2016,07,27,11,33,21.50
2016,07,27,11,34,21.60
2016,07,27,11,35,21.60
2016,07,27,11,36,21.60
2016,07,27,11,37,21.60
2016,07,27,11,38,21.50
2016,07,27,11,39,21.40
2016,07,27,11,40,21.40
2016,07,27,11,41,21.30
2016,07,27,11,42,21.20
2016,07,27,11,43,21.10
2016,07,27,11,44,21.00
2016,07,27,11,45,20.90
2016,07,27,11,46,20.90
2016,07,27,11,47,20.90
2016,07,27,11,48,20.90
2016,07,27,11,49,20.80
2016,07,27,11,50,20.80
2016,07,27,11,51,20.70
2016,07,27,11,52,20.70
2016,07,27,11,53,20.60
2016,07,27,11,54,20.60
2016,07,27,11,55,20.50
2016,07,27,11,56,20.40
2016,07,27,11,57,20.40
2016,07,27,11,58,20.40
2016,07,27,11,59,20.50
2016,07,27,12,00,20.50
2016,07,27,12,01,20.60
2016,07,27,12,02,20.60
2016,07,27,12,03,20.60
2016,07,27,12,04,20.60
2016,07,27,12,05,20.60
2016,07,27,12,06,20.60
2016,07,27,12,07,20.60
2016,07,27,12,08,20.70
2016,07,27,12,09,20.70
2016,07,27,12,10,20.80
2016,07,27,12,11,20.80
2016,07,27,12,12,20.80
2016,07,27,12,13,20.80
2016,07,27,12,14,20.90
2016,07,27,12,15,20.90
2016,07,27,12,16,21.00
2016,07,27,12,17,21.10
2016,07,27,12,18,21.20
2016,07,27,12,19,21.30
2016,07,27,12,20,21.30
2016,07,27,12,21,21.30
2016,07,27,12,22,21.40
2016,07,27,12,23,21.40
2016,07,27,12,24,21.50
2016,07,27,12,25,21.50
2016,07,27,12,26,21.50
2016,07,27,12,27,21.50
2016,07,27,12,28,21.50
2016,07,27,12,29,21.60
2016,07,27,12,30,21.50
2016,07,27,12,31,21.40
2016,07,27,12,32,21.40
2016,07,27,12,33,21.30
2016,07,27,12,34,21.30
2016,07,27,12,35,21.30
2016,07,27,12,36,21.30
2016,07,27,12,37,21.40
2016,07,27,12,38,21.40
2016,07,27,12,39,21.40
2016,07,27,12,40,21.40
2016,07,27,12,41,21.40
2016,07,27,12,42,21.40
2016,07,27,12,43,21.40
2016,07,27,12,44,21.30
2016,07,27,12,45,21.30
2016,07,27,12,46,21.30
2016,07,27,12,47,21.30
2016,07,27,12,48,21.30
2016,07,27,12,49,21.30
2016,07,27,12,50,21.30
2016,07,27,12,51,21.30
2016,07,27,12,52,21.30
2016,07,27,12,53,21.30
2016,07,27,12,54,21.40
2016,07,27,12,55,21.40
2016,07,27,12,56,21.50
2016,07,27,12,57,21.60
2016,07,27,12,58,21.60
2016,07,27,12,59,21.50
2016,07,27,13,00,21.40
2016,07,27,13,01,21.30
2016,07,27,13,02,21.20
2016,07,27,13,03,21.20
2016,07,27,13,04,21.20
2016,07,27,13,05,21.20
2016,07,27,13,06,21.20
2016,07,27,13,07,21.30
2016,07,27,13,08,21.30
2016,07,27,13,09,21.40
2016,07,27,13,10,21.50
2016,07,27,13,11,21.50
2016,07,27,13,12,21.60
2016,07,27,13,13,21.70
2016,07,27,13,14,21.90
2016,07,27,13,15,22.00
2016,07,27,13,16,22.10
2016,07,27,13,17,22.20
2016,07,27,13,18,22.30
2016,07,27,13,19,22.40
2016,07,27,13,20,22.40
2016,07,27,13,21,22.50
2016,07,27,13,22,22.50
2016,07,27,13,23,22.60
2016,07,27,13,24,22.60
2016,07,27,13,25,22.70
2016,07,27,13,26,22.70
2016,07,27,13,27,22.70
2016,07,27,13,28,22.60
2016,07,27,13,29,22.50
2016,07,27,13,30,22.50
2016,07,27,13,31,22.60
2016,07,27,13,32,22.60
2016,07,27,13,33,22.50
2016,07,27,13,34,22.40
2016,07,27,13,35,22.30
2016,07,27,13,36,22.20
2016,07,27,13,37,22.10
2016,07,27,13,38,21.90
2016,07,27,13,39,21.80
2016,07,27,13,40,21.70
2016,07,27,13,41,21.70
2016,07,27,13,42,21.70
2016,07,27,13,43,21.70
2016,07,27,13,44,21.70
2016,07,27,13,45,21.70
2016,07,27,13,46,21.70
2016,07,27,13,47,21.80
2016,07,27,13,48,21.80
2016,07,27,13,49,21.90
2016,07,27,13,50,22.00
2016,07,27,13,51,22.10
2016,07,27,13,52,22.20
2016,07,27,13,53,22.30
2016,07,27,13,54,22.30
2016,07,27,13,55,22.50
2016,07,27,13,56,22.50
2016,07,27,13,57,22.60
2016,07,27,13,58,22.60
2016,07,27,13,59,22.70
2016,07,27,14,00,22.70
2016,07,27,14,01,22.70
2016,07,27,14,02,22.80
2016,07,27,14,03,22.80
2016,07,27,14,04,22.70
2016,07,27,14,05,22.70
2016,07,27,14,06,22.70
2016,07,27,14,07,22.70
2016,07,27,14,08,22.70
2016,07,27,14,09,22.70
2016,07,27,14,10,22.70
2016,07,27,14,11,22.70
2016,07,27,14,12,22.60
2016,07,27,14,13,22.70
2016,07,27,14,14,22.70
2016,07,27,14,15,22.80
2016,07,27,14,16,22.80
2016,07,27,14,17,22.90
2016,07,27,14,18,22.90
2016,07,27,14,19,22.90
2016,07,27,14,20,22.90
2016,07,27,14,21,22.90
2016,07,27,14,22,23.00
2016,07,27,14,23,23.00
2016,07,27,14,24,23.10
2016,07,27,14,25,23.10
2016,07,27,14,26,23.10
2016,07,27,14,27,23.10
2016,07,27,14,28,23.10
2016,07,27,14,29,23.10
2016,07,27,14,30,23.10
2016,07,27,14,31,23.10
2016,07,27,14,32,23.10
2016,07,27,14,33,23.00
2016,07,27,14,34,23.00
2016,07,27,14,35,23.00
2016,07,27,14,36,23.00
2016,07,27,14,37,23.10
2016,07,27,14,38,23.10
2016,07,27,14,39,23.10
2016,07,27,14,40,23.10
2016,07,27,14,41,23.00
2016,07,27,14,42,23.00
2016,07,27,14,43,23.00
2016,07,27,14,44,23.10
2016,07,27,14,45,23.10
2016,07,27,14,46,23.10
2016,07,27,14,47,23.00
2016,07,27,14,48,22.90
2016,07,27,14,49,22.80
2016,07,27,14,50,22.80
2016,07,27,14,51,22.70
2016,07,27,14,52,22.70
2016,07,27,14,53,22.70
2016,07,27,14,54,22.70
2016,07,27,14,55,22.60
2016,07,27,14,56,22.60
2016,07,27,14,57,22.50
2016,07,27,14,58,22.50
2016,07,27,14,59,22.50
2016,07,27,15,00,22.60
2016,07,27,15,01,22.70
2016,07,27,15,02,22.80
2016,07,27,15,03,22.80
2016,07,27,15,04,22.80
2016,07,27,15,05,22.80
2016,07,27,15,06,22.80
2016,07,27,15,07,22.80
2016,07,27,15,08,22.80
2016,07,27,15,09,22.80
2016,07,27,15,10,22.80
2016,07,27,15,11,22.90
2016,07,27,15,12,22.90
2016,07,27,15,13,23.00
2016,07,27,15,14,23.00
2016,07,27,15,15,23.00
2016,07,27,15,16,23.10
2016,07,27,15,17,23.10
2016,07,27,15,18,23.10
2016,07,27,15,19,23.20
2016,07,27,15,20,23.30
2016,07,27,15,21,23.30
2016,07,27,15,22,23.40
2016,07,27,15,23,23.40
2016,07,27,15,24,23.40
2016,07,27,15,25,23.40
2016,07,27,15,26,23.30
2016,07,27,15,27,23.20
2016,07,27,15,28,23.10
2016,07,27,15,29,23.10
2016,07,27,15,30,23.00
2016,07,27,15,31,23.00
2016,07,27,15,32,22.90
2016,07,27,15,33,23.00
2016,07,27,15,34,23.00
2016,07,27,15,35,23.10
2016,07,27,15,36,23.10
2016,07,27,15,37,23.10
2016,07,27,15,38,23.10
2016,07,27,15,39,23.10
2016,07,27,15,40,23.10
2016,07,27,15,41,23.10
2016,07,27,15,42,23.20
2016,07,27,15,43,23.20
2016,07,27,15,44,23.20
2016,07,27,15,45,23.20
2016,07,27,15,46,23.20
2016,07,27,15,47,23.30
2016,07,27,15,48,23.30
2016,07,27,15,49,23.40
2016,07,27,15,50,23.40
2016,07,27,15,51,23.40
2016,07,27,15,52,23.40
2016,07,27,15,53,23.30
2016,07,27,15,54,23.20
2016,07,27,15,55,23.10
2016,07,27,15,56,23.10
2016,07,27,15,57,23.10
2016,07,27,15,58,23.10
2016,07,27,15,59,23.10
2016,07,27,16,00,23.10
2016,07,27,16,01,23.00
2016,07,27,16,02,22.90
2016,07,27,16,03,22.90
2016,07,27,16,04,22.80
2016,07,27,16,05,22.80
2016,07,27,16,06,22.70
2016,07,27,16,07,22.70
2016,07,27,16,08,22.80
2016,07,27,16,09,22.80
2016,07,27,16,10,22.90
2016,07,27,16,11,23.10
2016,07,27,16,12,23.20
2016,07,27,16,13,23.30
2016,07,27,16,14,23.40
2016,07,27,16,15,23.50
2016,07,27,16,16,23.50
2016,07,27,16,17,23.60
2016,07,27,16,18,23.60
2016,07,27,16,19,23.70
2016,07,27,16,20,23.80
2016,07,27,16,21,23.90
2016,07,27,16,22,24.00
2016,07,27,16,23,24.10
2016,07,27,16,24,24.20
2016,07,27,16,25,24.30
2016,07,27,16,26,24.30
2016,07,27,16,27,24.40
2016,07,27,16,28,24.50
2016,07,27,16,29,24.60
2016,07,27,16,30,24.60
2016,07,27,16,31,24.70
2016,07,27,16,32,24.80
2016,07,27,16,33,24.90
2016,07,27,16,34,25.00
2016,07,27,16,35,25.10
2016,07,27,16,36,25.30
2016,07,27,16,37,25.40
2016,07,27,16,38,25.50
2016,07,27,16,39,25.60
2016,07,27,16,40,25.70
2016,07,27,16,41,25.80
2016,07,27,16,42,25.90
2016,07,27,16,43,26.00
2016,07,27,16,44,26.20
2016,07,27,16,45,26.20
2016,07,27,16,46,26.30
2016,07,27,16,47,26.30
2016,07,27,16,48,26.40
2016,07,27,16,49,26.40
2016,07,27,16,50,26.40
2016,07,27,16,51,26.50
2016,07,27,16,52,26.50
2016,07,27,16,53,26.40
2016,07,27,16,54,26.40
2016,07,27,16,55,26.40
2016,07,27,16,56,26.40
2016,07,27,16,57,26.40
2016,07,27,16,58,26.30
2016,07,27,16,59,26.30
2016,07,27,17,00,26.20
2016,07,27,17,01,26.10
2016,07,27,17,02,26.00
2016,07,27,17,03,25.90
2016,07,27,17,04,25.80
2016,07,27,17,05,25.70
2016,07,27,17,06,25.60
2016,07,27,17,07,25.50
2016,07,27,17,08,25.40
2016,07,27,17,09,25.30
2016,07,27,17,10,25.20
2016,07,27,17,11,25.20
2016,07,27,17,12,25.10
2016,07,27,17,13,24.90
2016,07,27,17,14,24.80
2016,07,27,17,15,24.80
2016,07,27,17,16,24.70
2016,07,27,17,17,24.60
2016,07,27,17,18,24.60
2016,07,27,17,19,24.60
2016,07,27,17,20,24.60
2016,07,27,17,21,24.60
2016,07,27,17,22,24.50
2016,07,27,17,23,24.50
2016,07,27,17,24,24.50
2016,07,27,17,25,24.50
2016,07,27,17,26,24.60
2016,07,27,17,27,24.60
2016,07,27,17,28,24.60
2016,07,27,17,29,24.60
2016,07,27,17,30,24.50
2016,07,27,17,31,24.50
2016,07,27,17,32,24.50
2016,07,27,17,33,24.50
2016,07,27,17,34,24.50
2016,07,27,17,35,24.60
2016,07,27,17,36,24.60
2016,07,27,17,37,24.60
2016,07,27,17,38,24.60
2016,07,27,17,39,24.60
2016,07,27,17,40,24.70
2016,07,27,17,41,24.70
2016,07,27,17,42,24.70
2016,07,27,17,43,24.60
2016,07,27,17,44,24.50
2016,07,27,17,45,24.40
2016,07,27,17,46,24.40
2016,07,27,17,47,24.40
2016,07,27,17,48,24.40
2016,07,27,17,49,24.40
2016,07,27,17,50,24.40
2016,07,27,17,51,24.40
2016,07,27,17,52,24.40
2016,07,27,17,53,24.50
2016,07,27,17,54,24.50
2016,07,27,17,55,24.60
2016,07,27,17,56,24.60
2016,07,27,17,57,24.70
2016,07,27,17,58,24.70
2016,07,27,17,59,24.70
2016,07,27,18,00,24.70
2016,07,27,18,01,24.70
2016,07,27,18,02,24.70
2016,07,27,18,03,24.70
2016,07,27,18,04,24.70
2016,07,27,18,05,24.70
2016,07,27,18,06,24.60
2016,07,27,18,07,24.60
2016,07,27,18,08,24.60
2016,07,27,18,09,24.60
2016,07,27,18,10,24.60
2016,07,27,18,11,24.60
2016,07,27,18,12,24.60
2016,07,27,18,13,24.60
2016,07,27,18,14,24.60
2016,07,27,18,15,24.50
2016,07,27,18,16,24.50
2016,07,27,18,17,24.60
2016,07,27,18,18,24.60
2016,07,27,18,19,24.60
2016,07,27,18,20,24.60
2016,07,27,18,21,24.60
2016,07,27,18,22,24.60
2016,07,27,18,23,24.60
2016,07,27,18,24,24.60
2016,07,27,18,25,24.60
2016,07,27,18,26,24.60
2016,07,27,18,27,24.60
2016,07,27,18,28,24.60
2016,07,27,18,29,24.60
2016,07,27,18,30,24.60
2016,07,27,18,31,24.60
2016,07,27,18,32,24.60
2016,07,27,18,33,24.60
2016,07,27,18,34,24.60
2016,07,27,18,35,24.60
2016,07,27,18,36,24.50
2016,07,27,18,37,24.50
2016,07,27,18,38,24.50
2016,07,27,18,39,24.50
2016,07,27,18,40,24.50
2016,07,27,18,41,24.50
2016,07,27,18,42,24.50
2016,07,27,18,43,24.40
2016,07,27,18,44,24.40
2016,07,27,18,45,24.40
2016,07,27,18,46,24.40
2016,07,27,18,47,24.30
2016,07,27,18,48,24.30
2016,07,27,18,49,24.30
2016,07,27,18,50,24.30
2016,07,27,18,51,24.30
2016,07,27,18,52,24.30
2016,07,27,18,53,24.30
2016,07,27,18,54,24.30
2016,07,27,18,55,24.20
2016,07,27,18,56,24.20
2016,07,27,18,57,24.20
2016,07,27,18,58,24.20
2016,07,27,18,59,24.20
2016,07,27,19,00,24.20
2016,07,27,19,01,24.20
2016,07,27,19,02,24.10
2016,07,27,19,03,24.10
2016,07,27,19,04,24.10
2016,07,27,19,05,24.10
2016,07,27,19,06,24.10
2016,07,27,19,07,24.00
2016,07,27,19,08,24.00
2016,07,27,19,09,23.90
2016,07,27,19,10,23.90
2016,07,27,19,11,23.90
2016,07,27,19,12,23.90
2016,07,27,19,13,23.90
2016,07,27,19,14,23.90
2016,07,27,19,15,23.90
2016,07,27,19,16,23.90
2016,07,27,19,17,23.90
2016,07,27,19,18,23.90
2016,07,27,19,19,23.90
2016,07,27,19,20,23.90
2016,07,27,19,21,23.90
